#timestamp,LO_Frequency,Hit,StdDev 
1624244415.1,286047000.7,N
1624244435.9,286046998.1,N
1624244455.7,286046998.3,N
1624244475.5,286046998.4,N
1624244495.4,286047001.1,N
1624244515.2,286046998.4,N
1624244535.0,286046998.2,N
1624244536.0,286046998.2,N
1624244555.8,286046998.2,N
1624244575.6,286046998.8,N
1624244595.5,286046998.8,N
1624244615.3,286046999.6,N
1624244635.1,286046999.2,N
1624244655.9,286046999.5,N
1624244675.7,286046999.1,N
1624244695.6,286046999.2,N
1624244715.4,286046998.6,N
1624244735.2,286046998.9,N
1624244755.1,286046999.4,N
1624244756.0,286046999.4,N
1624244775.8,286046999.0,N
1624244795.6,286046999.1,N
1624244815.5,286046996.7,Y
1624244835.3,286046998.7,P
1624244855.2,286046999.0,P
1624244875.9,286046998.8,P
1624244895.7,286046999.3,Y
1624244915.6,286046998.1,P
1624244935.4,286047000.9,N
1624244955.2,286047001.0,N
1624244975.1,286046998.5,N
1624244976.0,286046998.5,N
1624244995.8,286047000.8,N
1624245015.7,286047000.8,N
1624245035.5,286046998.2,N
1624245055.3,286046998.5,N
1624245075.2,286046998.2,N
1624245095.0,286046998.3,N
1624245095.9,286046998.3,N
1624245115.7,286047001.1,N
1624245135.6,286046998.3,N
1624245155.4,286047001.1,N
1624245175.3,286046998.6,N
1624245195.1,286047000.7,N
1624245196.0,286047000.7,N
1624245215.8,286047000.8,N
1624245235.7,286047000.7,N
1624245255.5,286047000.9,N
1624245275.3,286047000.7,N
1624245295.2,286046998.5,N
1624245315.0,286046998.5,N
1624245315.9,286046998.5,N
1624245335.8,286047001.0,N
1624245355.6,286047000.7,N
1624245375.4,286047000.7,N
1624245395.3,286047000.4,N
1624245415.1,286047001.0,N
1624245435.8,286047000.7,N
1624245455.7,286047000.4,N
1624245475.5,286047000.4,N
1624245495.4,286047000.6,N
1624245515.2,286047000.0,N
1624245535.0,286047000.6,N
1624245535.9,286047000.6,N
1624245555.8,286047000.8,N
1624245575.6,286047000.9,N
1624245595.4,286047001.0,N
1624245615.3,286047000.9,N
1624245635.1,286047002.7,N
1624245655.9,286047002.4,N
1624245675.7,286047002.1,N
1624245695.5,286046999.7,N
1624245715.4,286046999.7,N
1624245735.2,286047000.1,N
1624245755.0,286047002.0,N
1624245755.9,286047002.0,N
1624245775.8,286047002.6,N
1624245795.6,286047002.3,N
1624245815.5,286047001.7,N
1624245835.3,286047002.3,N
1624245855.1,286047001.7,N
1624245875.9,286047001.7,N
1624245895.7,286047001.4,N
1624245915.5,286047001.6,N
1624245935.4,286047002.1,N
1624245955.2,286047000.1,N
1624245975.1,286047002.3,N
1624245976.0,286047002.3,N
1624245995.8,286047002.7,N
1624246015.6,286047000.1,N
1624246035.5,286047002.7,N
1624246055.3,286047002.2,N
1624246075.1,286047000.2,N
1624246095.9,286047000.1,N
1624246115.7,286047002.8,N
1624246135.6,286047002.7,N
1624246155.4,286046999.8,N
1624246175.2,286047002.8,N
1624246195.1,286047000.4,N
1624246196.0,286047000.4,N
1624246215.8,286047002.8,N
1624246235.6,286047000.2,N
1624246255.5,286047002.3,N
1624246275.3,286047002.4,N
1624246295.2,286047002.3,N
1624246315.9,286047002.6,N
1624246335.7,286047002.3,N
1624246355.6,286047002.7,N
1624246375.4,286047002.4,N
1624246395.2,286047002.4,N
1624246415.1,286047002.6,N
1624246416.0,286047002.6,N
1624246435.8,286047002.6,N
1624246455.7,286047002.6,N
1624246475.5,286047002.4,N
1624246495.3,286047002.3,N
1624246515.2,286047002.4,N
1624246535.0,286047002.5,N
1624246535.9,286047002.5,N
1624246555.7,286047002.1,N
1624246575.6,286047001.7,N
1624246595.4,286047001.8,N
1624246615.3,286047001.6,N
1624246635.1,286047002.7,Y
1624246636.0,286047002.7,P
1624246655.8,286047000.6,N
1624246675.7,286047000.5,N
1624246695.5,286047001.1,N
1624246715.3,286046998.2,N
1624246735.2,286046998.2,N
1624246755.0,286047001.1,N
1624246755.9,286047001.1,N
1624246775.8,286047000.8,N
1624246795.6,286047000.8,N
1624246815.4,286047000.7,N
1624246835.3,286047000.3,N
1624246855.1,286046998.5,N
1624246875.8,286046998.1,N
1624246895.7,286047001.2,N
1624246915.5,286047001.1,N
1624246935.4,286047001.0,N
1624246955.2,286046998.4,N
1624246975.0,286046998.3,N
1624246975.9,286046998.3,N
1624246995.8,286046998.2,N
1624247015.6,286046998.1,N
1624247035.4,286046998.2,N
1624247055.3,286046998.2,N
1624247075.1,286047001.1,N
1624247095.9,286046998.1,N
1624247115.7,286047001.2,N
1624247135.5,286046998.1,N
1624247155.4,286047000.4,N
1624247175.2,286047000.0,N
1624247195.0,286047000.4,N
1624247195.9,286047000.4,N
1624247215.8,286047000.9,N
1624247235.6,286047001.0,N
1624247255.5,286047001.1,N
1624247275.3,286047000.8,N
1624247295.1,286046998.3,N
1624247315.9,286046998.1,N
1624247335.7,286046998.2,N
1624247355.5,286046999.4,N
1624247375.4,286046998.6,N
1624247395.2,286046998.4,N
1624247415.1,286046999.3,N
1624247416.0,286046999.3,N
1624247435.8,286046998.2,N
1624247455.6,286046998.6,N
1624247475.5,286046998.1,N
1624247495.3,286046998.4,N
1624247515.1,286046998.6,N
1624247535.9,286046998.9,N
1624247555.7,286046998.9,N
1624247575.6,286046999.1,N
1624247595.4,286046996.5,Y
1624247615.2,286047000.8,P
1624247635.1,286047001.1,N
1624247636.0,286047001.1,N
1624247655.8,286047000.7,N
1624247675.6,286046998.9,N
1624247695.5,286047001.2,N
1624247715.3,286047001.2,N
1624247735.2,286046998.1,N
1624247755.9,286046998.5,N
1624247775.7,286047000.8,N
1624247795.6,286046998.3,N
1624247815.4,286046998.4,N
1624247835.2,286046998.8,N
1624247855.1,286046998.1,N
1624247856.0,286046998.1,N
1624247875.8,286046998.5,N
1624247895.7,286046998.8,N
1624247915.5,286046998.7,N
1624247935.3,286046999.0,N
1624247955.2,286046999.1,N
1624247975.0,286046999.2,N
1624247975.9,286046999.2,N
1624247995.7,286046999.0,N
